Doylestown, PA

4:59 AM EDT on May 28, 2018 (GMT -0400)
Doylestown

Weather History for KDYL - April, 2014

Change the Weather History Date:

Thursday, April 10, 2014

  Actual Average (KTTN) Record (KTTN)
Temperature  
Mean Temperature 48 °F -  
Max Temperature 64 °F 58 °F 87 °F (2013)
Min Temperature 32 °F 38 °F 20 °F (1985)
Degree Days  
Heating Degree Days 18    
Moisture  
Dew Point 30 °F    
Average Humidity 51    
Maximum Humidity 82    
Minimum Humidity 31    
Precipitation  
Precipitation 0.00 in - - ()
Sea Level Pressure  
Sea Level Pressure 30.11 in    
Wind  
Wind Speed 4 mph (SSW)    
Max Wind Speed 13 mph    
Max Gust Speed 22 mph    
Visibility 10 miles    
Events      
Averages and records for this station are not official NWS values.
T = Trace of Precipitation, MM = Missing Value Source: NWS Daily Summary

Daily Weather History Graph

Daily Weather History Graph

Search for Another Location

Airport or City:

Astronomy

Apr. 10, 2014 Rise Set
Actual Time 6:29 AM EDT 7:34 PM EDT
Civil Twilight 6:02 AM EDT 8:02 PM EDT
Nautical Twilight 5:28 AM EDT 8:35 PM EDT
Astronomical Twilight 4:54 AM EDT 9:10 PM EDT
Moon 3:15 PM EDT (4/10) 3:52 AM EDT (4/10)
Length of Visible Light 14h 00m
Length of Day
13h 04m
Waxing Gibbous, 79% of the Moon is Illuminated
Apr 10
Waxing Gibbous
Apr 15
Full
Apr 22
Last Quarter
Apr 29
New
May 6
First Quarter

Hourly Weather History & Observations

Time (EDT) Temp. Windchill Dew Point Humidity Pressure Visibility Wind Dir Wind Speed Gust Speed Precip Events Conditions
12:54 AM 42.1 °F - 27.0 °F 55% 30.06 in 10.0 mi Calm Calm - N/A   Clear
1:54 AM 36.0 °F - 28.9 °F 76% 30.08 in 10.0 mi Calm Calm - N/A   Clear
2:54 AM 35.1 °F - 28.9 °F 78% 30.09 in 10.0 mi Calm Calm - N/A   Clear
3:54 AM 34.0 °F - 28.0 °F 79% 30.10 in 10.0 mi Calm Calm - N/A   Clear
4:54 AM 32.0 °F - 27.0 °F 82% 30.12 in 10.0 mi Calm Calm - N/A   Clear
5:54 AM 32.0 °F - 26.1 °F 79% 30.14 in 10.0 mi Calm Calm - N/A   Clear
6:54 AM 33.1 °F - 28.0 °F 82% 30.17 in 10.0 mi Calm Calm - N/A   Clear
7:54 AM 37.0 °F - 30.0 °F 76% 30.20 in 10.0 mi Calm Calm - N/A   Clear
8:54 AM 46.0 °F 43.1 °F 28.9 °F 51% 30.21 in 10.0 mi South 5.8 mph - N/A   Clear
9:54 AM 50.0 °F - 28.9 °F 44% 30.21 in 10.0 mi SW 10.4 mph - N/A   Clear
10:54 AM 54.0 °F - 28.9 °F 38% 30.22 in 10.0 mi SW 9.2 mph - N/A   Clear
11:54 AM 57.0 °F - 30.9 °F 37% 30.19 in 10.0 mi SSW 9.2 mph 18.4 mph N/A   Clear
12:54 PM 57.9 °F - 32.0 °F 37% 30.15 in 10.0 mi SSW 9.2 mph 18.4 mph N/A   Clear
1:54 PM 61.0 °F - 30.9 °F 32% 30.12 in 10.0 mi SW 8.1 mph - N/A   Clear
2:54 PM 62.1 °F - 30.9 °F 31% 30.11 in 10.0 mi SSW 11.5 mph 19.6 mph N/A   Clear
3:54 PM 63.0 °F - 32.0 °F 31% 30.08 in 10.0 mi SW 11.5 mph 21.9 mph N/A   Clear
4:54 PM 63.0 °F - 32.0 °F 31% 30.06 in 10.0 mi South 12.7 mph 20.7 mph N/A   Clear
5:54 PM 62.1 °F - 30.9 °F 31% 30.05 in 10.0 mi SSW 12.7 mph 21.9 mph N/A   Clear
6:54 PM 60.1 °F - 32.0 °F 35% 30.05 in 10.0 mi South 10.4 mph 18.4 mph N/A   Clear
7:54 PM 57.9 °F - 33.1 °F 39% 30.05 in 10.0 mi South 6.9 mph - N/A   Clear
8:54 PM 55.9 °F - 33.1 °F 42% 30.05 in 10.0 mi South 9.2 mph - N/A   Clear
9:54 PM 54.0 °F - 33.1 °F 45% 30.04 in 10.0 mi South 8.1 mph - N/A   Clear
10:54 PM 55.0 °F - 34.0 °F 45% 30.03 in 10.0 mi South 9.2 mph 20.7 mph N/A   Clear
11:54 PM 54.0 °F - 33.1 °F 45% 30.03 in 10.0 mi SSW 8.1 mph - N/A   Clear